COSMOS 1275 DEB, 12708

Orbit data source: Space-Track

COSMOS 1275 DEB, 12708 is space debris in LEO originally from a launch on Thu, 04 Jun 1981 UTC launched from the Plesetsk Missile And Space Complex (PKMTR). Debris objects in space refer to the collection of defunct objects orbiting the Earth. Examples of debris include non-operational satellites, rocket bodies, and fragments generated from explosions, collisions, or faulty payload assembly.

Loading next visibility...
Identifier
12708, 1981-053BC
Orbit
LEO
Country
Flag of CISCIS
Related business
Manufacturer
Unknown
Mission
Spacecraft
Bus & Motor
Unknown
Mass
Unknown
Launch date (UTC)
1981-06-04 (45 years ago)
Launch vehicle
Unknown
Launch site
Plesetsk Missile And Space Complex (PKMTR)
Object type
Payload
Rocket body
Debris
Shape & HBR
Unknown shape, 0.2 m
Radar Cross Section
Medium (>0.1 m² and <1 m²)

Expand to show TLE details & history
Last TLE update: 15 hours ago

TLE from 15 hours ago
0 COSMOS 1275 DEB
1 12708U 81053BC  26254.67296967  .00008089  00000-0  12084-2 0  9998
2 12708  82.8607 325.8818 0017285 242.3067 117.6391 14.74571330326636
Epoch: 2026-09-11T16:09Z
TLE epoch observation values (Epoch: 2026-09-11T16:09:04.579Z)
Latitude
Longitude
92.91977°
Altitude
655.198 km
Speed
7.527 km/s
True Right ascension
21h 43m 31s
True Declination
0° 00' 00"
Sunlit
Object was in full shadow at epoch
Visualization orbit readout
Latitude
Unknown
Longitude
Unknown
Altitude
Unknown
Speed
Unknown
Apparent Right ascension
Unknown
Apparent Declination
Unknown
Sunlit
N/A
Visualization observer readout
Local Sidereal Time
23:48:43
Azimuth
Unknown
Elevation
Unknown
Doppler factor
Unknown
Orbital elements
Apogee altitude
655.665 km
Perigee altitude
631.391 km
Semi-major axis
7,021.665 km
Eccentricity
0.00173
Inclination
82.8607°
RAAN
325.8818°
Arg. of periapsis
242.3067°
True anomaly
117.81439°
Mean anomaly
117.6391°
Eccentric anomaly
117.72676°
Mean motion
3.68878 °/min
Orbital period
97.59 mins
BSTAR
0.0012084
Loading maneuver chart data...
Computing Atmospheric mass density...
Loading historical data...
Loading historical data...
Loading historical data...
Loading historical data...
Loading historical data...
Loading historical data...
Loading historical data...

Documentation

Showing up to 5 results
|